Time,TemperatureF,DewpointF,PressureIn,WindDirection,WindDirectionDegrees,WindSpeedMPH,WindSpeedGustMPH,Humidity,HourlyPrecipIn,Conditions,Clouds,dailyrainin,SoftwareType,DateUTC
2013-01-03 00:03:00,72.0,69.0,30.08,SSW,208,0.0,1.0,89,0.00,,,0.00,,2013-01-03 05:03:00,
2013-01-03 00:12:00,72.0,69.0,30.07,SSW,205,0.0,0.0,89,0.00,,,0.00,,2013-01-03 05:12:00,
2013-01-03 00:23:00,72.0,69.0,30.07,SSW,205,0.0,0.0,89,0.00,,,0.00,,2013-01-03 05:23:00,
2013-01-03 00:33:00,72.0,69.0,30.07,SSW,205,0.0,0.0,89,0.00,,,0.00,,2013-01-03 05:33:00,
2013-01-03 00:42:00,72.0,69.0,30.07,SSW,205,0.0,0.0,89,0.00,,,0.00,,2013-01-03 05:42:00,
2013-01-03 00:53:00,72.0,69.0,30.07,SSW,205,0.0,0.0,90,0.00,,,0.00,,2013-01-03 05:53:00,
2013-01-03 01:02:00,71.0,68.0,30.07,SSW,205,0.0,0.0,91,0.00,,,0.00,,2013-01-03 06:02:00,
2013-01-03 01:12:00,71.0,68.0,30.07,SSW,205,0.0,0.0,91,0.00,,,0.00,,2013-01-03 06:12:00,
2013-01-03 01:22:00,71.0,69.0,30.07,SSW,205,0.0,0.0,92,0.00,,,0.00,,2013-01-03 06:22:00,
2013-01-03 01:33:00,70.0,68.0,30.07,SSW,205,0.0,0.0,93,0.00,,,0.00,,2013-01-03 06:33:00,
2013-01-03 01:42:00,70.0,68.0,30.07,SSW,205,0.0,0.0,93,0.00,,,0.00,,2013-01-03 06:42:00,
2013-01-03 01:53:00,71.0,69.0,30.07,WNW,300,0.0,1.0,93,0.00,,,0.00,,2013-01-03 06:53:00,
2013-01-03 02:02:00,70.0,68.0,30.07,NNE,22,0.0,1.0,93,0.00,,,0.00,,2013-01-03 07:02:00,
2013-01-03 02:12:00,70.0,68.0,30.07,NNE,22,0.0,1.0,93,0.00,,,0.00,,2013-01-03 07:12:00,
2013-01-03 02:22:00,70.0,68.0,30.07,North,360,0.0,1.0,94,0.00,,,0.00,,2013-01-03 07:22:00,
2013-01-03 02:33:00,70.0,68.0,30.06,NNE,32,0.0,1.0,94,0.00,,,0.00,,2013-01-03 07:33:00,
2013-01-03 02:42:00,70.0,68.0,30.06,NNE,32,0.0,1.0,94,0.00,,,0.00,,2013-01-03 07:42:00,
2013-01-03 02:53:00,70.0,68.0,30.06,NNE,27,0.0,1.0,93,0.00,,,0.00,,2013-01-03 07:53:00,
2013-01-03 03:02:00,69.0,67.0,30.06,NNE,30,0.0,1.0,93,0.00,,,0.00,,2013-01-03 08:02:00,
2013-01-03 03:12:00,69.0,67.0,30.06,NNE,30,0.0,1.0,93,0.00,,,0.00,,2013-01-03 08:12:00,
2013-01-03 03:22:00,69.0,67.0,30.06,NNE,21,0.0,0.0,93,0.00,,,0.00,,2013-01-03 08:22:00,
2013-01-03 03:33:00,69.0,67.0,30.06,NNE,22,0.0,0.0,93,0.00,,,0.00,,2013-01-03 08:33:00,
2013-01-03 03:43:00,69.0,67.0,30.06,NNE,22,0.0,0.0,93,0.00,,,0.00,,2013-01-03 08:43:00,
2013-01-03 03:53:00,68.0,66.0,30.07,NNE,22,0.0,0.0,94,0.00,,,0.00,,2013-01-03 08:53:00,
2013-01-03 04:02:00,68.0,66.0,30.07,NNE,22,0.0,0.0,94,0.00,,,0.00,,2013-01-03 09:02:00,
2013-01-03 04:12:00,68.0,66.0,30.07,NNE,22,0.0,0.0,94,0.00,,,0.00,,2013-01-03 09:12:00,
2013-01-03 04:22:00,67.0,65.0,30.07,NNE,21,0.0,0.0,94,0.00,,,0.00,,2013-01-03 09:22:00,
2013-01-03 04:33:00,67.0,66.0,30.07,NNE,21,0.0,0.0,95,0.00,,,0.00,,2013-01-03 09:33:00,
2013-01-03 04:43:00,67.0,66.0,30.07,NNE,21,0.0,0.0,95,0.00,,,0.00,,2013-01-03 09:43:00,
2013-01-03 04:53:00,67.0,66.0,30.07,NNE,22,0.0,0.0,96,0.00,,,0.00,,2013-01-03 09:53:00,
2013-01-03 05:02:00,67.0,66.0,30.07,NNE,22,0.0,0.0,96,0.00,,,0.00,,2013-01-03 10:02:00,
2013-01-03 05:12:00,67.0,66.0,30.07,NNE,22,0.0,0.0,96,0.00,,,0.00,,2013-01-03 10:12:00,
2013-01-03 05:23:00,67.0,66.0,30.07,NNE,22,0.0,0.0,96,0.00,,,0.00,,2013-01-03 10:23:00,
2013-01-03 05:33:00,67.0,66.0,30.07,NNE,21,0.0,0.0,96,0.00,,,0.00,,2013-01-03 10:33:00,
2013-01-03 05:43:00,67.0,66.0,30.07,NNE,21,0.0,0.0,96,0.00,,,0.00,,2013-01-03 10:43:00,
2013-01-03 05:53:00,68.0,67.0,30.07,North,358,0.0,1.0,96,0.00,,,0.00,,2013-01-03 10:53:00,
2013-01-03 06:02:00,68.0,67.0,30.08,North,360,0.0,0.0,95,0.00,,,0.00,,2013-01-03 11:02:00,
2013-01-03 06:12:00,68.0,67.0,30.08,North,360,0.0,0.0,95,0.00,,,0.00,,2013-01-03 11:12:00,
2013-01-03 06:23:00,68.0,67.0,30.08,North,359,0.0,0.0,95,0.00,,,0.00,,2013-01-03 11:23:00,
2013-01-03 06:33:00,68.0,67.0,30.09,North,360,0.0,0.0,95,0.00,,,0.00,,2013-01-03 11:33:00,
2013-01-03 06:43:00,68.0,67.0,30.09,North,360,0.0,0.0,95,0.00,,,0.00,,2013-01-03 11:43:00,
2013-01-03 06:53:00,68.0,67.0,30.09,North,359,0.0,0.0,95,0.00,,,0.00,,2013-01-03 11:53:00,
2013-01-03 07:03:00,68.0,67.0,30.09,North,359,0.0,0.0,95,0.00,,,0.00,,2013-01-03 12:03:00,
2013-01-03 07:12:00,68.0,67.0,30.09,North,359,0.0,0.0,95,0.00,,,0.00,,2013-01-03 12:12:00,
2013-01-03 07:22:00,68.0,67.0,30.10,NNE,20,0.0,0.0,95,0.00,,,0.00,,2013-01-03 12:22:00,
2013-01-03 07:33:00,68.0,67.0,30.10,NNE,20,0.0,0.0,95,0.00,,,0.00,,2013-01-03 12:33:00,
2013-01-03 07:42:00,68.0,67.0,30.10,NNE,20,0.0,0.0,95,0.00,,,0.00,,2013-01-03 12:42:00,
2013-01-03 07:53:00,68.0,67.0,30.11,NNE,29,0.0,0.0,95,0.00,,,0.00,,2013-01-03 12:53:00,
2013-01-03 08:02:00,68.0,67.0,30.11,East,99,0.0,1.0,95,0.00,,,0.00,,2013-01-03 13:02:00,
2013-01-03 08:13:00,68.0,67.0,30.11,East,99,0.0,1.0,95,0.00,,,0.00,,2013-01-03 13:13:00,
2013-01-03 08:22:00,69.0,67.0,30.12,ENE,75,0.0,1.0,94,0.00,,,0.00,,2013-01-03 13:22:00,
2013-01-03 08:33:00,71.0,69.0,30.12,ENE,77,0.0,1.0,92,0.00,,,0.00,,2013-01-03 13:33:00,
2013-01-03 08:42:00,71.0,69.0,30.12,ENE,77,0.0,1.0,92,0.00,,,0.00,,2013-01-03 13:42:00,
2013-01-03 08:53:00,72.0,69.0,30.12,ESE,113,0.0,1.0,90,0.00,,,0.00,,2013-01-03 13:53:00,
2013-01-03 09:03:00,74.0,70.0,30.13,East,94,0.0,1.0,86,0.00,,,0.00,,2013-01-03 14:03:00,
2013-01-03 09:12:00,74.0,70.0,30.13,East,94,0.0,1.0,86,0.00,,,0.00,,2013-01-03 14:12:00,
2013-01-03 09:23:00,74.0,69.0,30.13,East,87,0.0,1.0,85,0.00,,,0.00,,2013-01-03 14:23:00,
2013-01-03 09:33:00,75.0,69.0,30.13,ESE,112,0.0,1.0,83,0.00,,,0.00,,2013-01-03 14:33:00,
2013-01-03 09:42:00,75.0,69.0,30.13,ESE,112,0.0,1.0,83,0.00,,,0.00,,2013-01-03 14:42:00,
2013-01-03 09:53:00,76.0,70.0,30.13,South,181,0.0,2.0,82,0.00,,,0.00,,2013-01-03 14:53:00,
2013-01-03 10:03:00,77.0,70.0,30.13,ESE,114,0.0,2.0,79,0.00,,,0.00,,2013-01-03 15:03:00,
2013-01-03 10:12:00,77.0,70.0,30.13,South,184,0.0,1.0,79,0.00,,,0.00,,2013-01-03 15:12:00,
2013-01-03 10:23:00,77.0,70.0,30.13,South,184,0.0,1.0,79,0.00,,,0.00,,2013-01-03 15:23:00,
2013-01-03 10:33:00,78.0,70.0,30.14,SE,134,1.0,4.0,76,0.00,,,0.00,,2013-01-03 15:33:00,
2013-01-03 10:43:00,78.0,70.0,30.14,SE,134,1.0,4.0,76,0.00,,,0.00,,2013-01-03 15:43:00,
2013-01-03 10:53:00,78.0,69.0,30.13,South,169,1.0,5.0,74,0.00,,,0.00,,2013-01-03 15:53:00,
2013-01-03 11:03:00,79.0,69.0,30.13,West,262,2.0,6.0,71,0.00,,,0.00,,2013-01-03 16:03:00,
2013-01-03 11:12:00,79.0,69.0,30.13,West,262,2.0,6.0,71,0.00,,,0.00,,2013-01-03 16:12:00,
2013-01-03 11:23:00,79.0,69.0,30.12,West,259,1.0,6.0,72,0.00,,,0.00,,2013-01-03 16:23:00,
2013-01-03 11:33:00,80.0,69.0,30.12,South,172,2.0,7.0,70,0.00,,,0.00,,2013-01-03 16:33:00,
2013-01-03 11:43:00,80.0,69.0,30.12,South,172,2.0,7.0,70,0.00,,,0.00,,2013-01-03 16:43:00,
2013-01-03 11:53:00,80.0,68.0,30.11,SW,226,4.0,9.0,66,0.00,,,0.00,,2013-01-03 16:53:00,
2013-01-03 12:03:00,81.0,69.0,30.11,WSW,256,1.0,4.0,66,0.00,,,0.00,,2013-01-03 17:03:00,
2013-01-03 12:12:00,81.0,69.0,30.11,WSW,256,1.0,4.0,66,0.00,,,0.00,,2013-01-03 17:12:00,
2013-01-03 12:23:00,82.0,68.0,30.10,SSW,193,2.0,8.0,63,0.00,,,0.00,,2013-01-03 17:23:00,
2013-01-03 12:33:00,82.0,67.0,30.09,SE,124,3.0,6.0,61,0.00,,,0.00,,2013-01-03 17:33:00,
2013-01-03 12:43:00,82.0,67.0,30.09,SE,124,3.0,6.0,61,0.00,,,0.00,,2013-01-03 17:43:00,
2013-01-03 12:53:00,82.0,67.0,30.09,South,191,4.0,7.0,60,0.00,,,0.00,,2013-01-03 17:53:00,
2013-01-03 13:03:00,82.0,67.0,30.08,South,183,4.0,10.0,61,0.00,,,0.00,,2013-01-03 18:03:00,
2013-01-03 13:13:00,82.0,67.0,30.08,South,183,4.0,10.0,61,0.00,,,0.00,,2013-01-03 18:13:00,
2013-01-03 13:22:00,82.0,68.0,30.07,SW,226,4.0,10.0,62,0.00,,,0.00,,2013-01-03 18:22:00,
2013-01-03 13:33:00,82.0,67.0,30.06,WNW,284,3.0,7.0,61,0.00,,,0.00,,2013-01-03 18:33:00,
2013-01-03 13:43:00,82.0,67.0,30.06,WNW,284,3.0,7.0,61,0.00,,,0.00,,2013-01-03 18:43:00,
2013-01-03 13:53:00,82.0,67.0,30.06,SE,141,1.0,6.0,60,0.00,,,0.00,,2013-01-03 18:53:00,
2013-01-03 14:03:00,83.0,67.0,30.05,SSE,155,4.0,8.0,59,0.00,,,0.00,,2013-01-03 19:03:00,
2013-01-03 14:12:00,83.0,67.0,30.05,SSE,155,4.0,8.0,59,0.00,,,0.00,,2013-01-03 19:12:00,
2013-01-03 14:56:00,82.0,66.0,30.05,SW,215,3.0,6.0,59,0.00,,,0.00,,2013-01-03 19:56:00,
2013-01-03 15:03:00,82.0,66.0,30.05,East,85,2.0,7.0,58,0.00,,,0.00,,2013-01-03 20:03:00,
2013-01-03 15:13:00,82.0,66.0,30.05,East,85,2.0,7.0,58,0.00,,,0.00,,2013-01-03 20:13:00,
2013-01-03 15:22:00,84.0,66.0,30.05,SE,125,1.0,7.0,55,0.00,,,0.00,,2013-01-03 20:22:00,
2013-01-03 15:33:00,84.0,67.0,30.05,South,188,1.0,3.0,56,0.00,,,0.00,,2013-01-03 20:33:00,
2013-01-03 15:43:00,84.0,67.0,30.05,South,188,1.0,3.0,56,0.00,,,0.00,,2013-01-03 20:43:00,
2013-01-03 15:53:00,83.0,66.0,30.06,SW,214,4.0,6.0,57,0.00,,,0.00,,2013-01-03 20:53:00,
2013-01-03 16:02:00,83.0,66.0,30.06,SSE,159,1.0,7.0,57,0.00,,,0.00,,2013-01-03 21:02:00,
2013-01-03 16:12:00,83.0,66.0,30.06,SSE,159,1.0,7.0,57,0.00,,,0.00,,2013-01-03 21:12:00,
2013-01-03 16:23:00,84.0,66.0,30.06,SW,226,2.0,5.0,54,0.00,,,0.00,,2013-01-03 21:23:00,
2013-01-03 16:36:00,84.0,66.0,30.07,West,269,1.0,6.0,54,0.00,,,0.00,,2013-01-03 21:36:00,
2013-01-03 16:48:00,84.0,66.0,30.07,West,269,1.0,6.0,54,0.00,,,0.00,,2013-01-03 21:48:00,
2013-01-03 17:03:00,83.0,65.0,30.07,SW,218,0.0,5.0,55,0.00,,,0.00,,2013-01-03 22:03:00,
2013-01-03 17:12:00,83.0,65.0,30.07,SW,218,0.0,5.0,55,0.00,,,0.00,,2013-01-03 22:12:00,
2013-01-03 17:22:00,83.0,66.0,30.08,SSW,208,1.0,4.0,56,0.00,,,0.00,,2013-01-03 22:22:00,
2013-01-03 17:33:00,82.0,65.0,30.08,SSW,207,0.0,4.0,57,0.00,,,0.00,,2013-01-03 22:33:00,
2013-01-03 17:42:00,82.0,65.0,30.08,SSW,207,0.0,4.0,57,0.00,,,0.00,,2013-01-03 22:42:00,
2013-01-03 17:53:00,80.0,66.0,30.09,SSE,165,1.0,3.0,62,0.00,,,0.00,,2013-01-03 22:53:00,
2013-01-03 18:03:00,78.0,67.0,30.09,South,189,0.0,4.0,68,0.00,,,0.00,,2013-01-03 23:03:00,
2013-01-03 18:12:00,78.0,67.0,30.09,South,189,0.0,4.0,68,0.00,,,0.00,,2013-01-03 23:12:00,
2013-01-03 18:23:00,77.0,67.0,30.10,SSW,207,0.0,3.0,72,0.00,,,0.00,,2013-01-03 23:23:00,
2013-01-03 18:33:00,76.0,67.0,30.10,SSW,210,0.0,2.0,74,0.00,,,0.00,,2013-01-03 23:33:00,
2013-01-03 18:43:00,76.0,67.0,30.10,SSW,210,0.0,2.0,74,0.00,,,0.00,,2013-01-03 23:43:00,
2013-01-03 18:53:00,75.0,67.0,30.10,SE,124,0.0,2.0,75,0.00,,,0.00,,2013-01-03 23:53:00,
2013-01-03 19:03:00,74.0,66.0,30.11,SSW,193,0.0,0.0,76,0.00,,,0.00,,2013-01-04 00:03:00,
2013-01-03 19:12:00,74.0,66.0,30.11,SSW,193,0.0,0.0,76,0.00,,,0.00,,2013-01-04 00:12:00,
2013-01-03 19:22:00,74.0,67.0,30.12,South,191,0.0,0.0,78,0.00,,,0.00,,2013-01-04 00:22:00,
2013-01-03 19:32:00,73.0,66.0,30.12,ESE,103,0.0,0.0,80,0.00,,,0.00,,2013-01-04 00:32:00,
2013-01-03 19:42:00,73.0,66.0,30.12,ESE,103,0.0,0.0,80,0.00,,,0.00,,2013-01-04 00:42:00,
2013-01-03 19:53:00,73.0,67.0,30.13,SSW,204,0.0,1.0,81,0.00,,,0.00,,2013-01-04 00:53:00,
2013-01-03 20:02:00,73.0,68.0,30.13,SSW,197,0.0,2.0,83,0.00,,,0.00,,2013-01-04 01:02:00,
2013-01-03 20:12:00,73.0,68.0,30.13,SSW,197,0.0,2.0,83,0.00,,,0.00,,2013-01-04 01:12:00,
2013-01-03 20:22:00,73.0,68.0,30.13,SSW,198,0.0,2.0,84,0.00,,,0.00,,2013-01-04 01:22:00,
2013-01-03 20:33:00,73.0,68.0,30.14,SE,134,0.0,1.0,84,0.00,,,0.00,,2013-01-04 01:33:00,
2013-01-03 20:42:00,73.0,68.0,30.14,SE,134,0.0,1.0,84,0.00,,,0.00,,2013-01-04 01:42:00,
2013-01-03 20:53:00,72.0,67.0,30.14,South,187,0.0,0.0,85,0.00,,,0.00,,2013-01-04 01:53:00,
2013-01-03 21:02:00,72.0,68.0,30.14,South,188,0.0,0.0,88,0.00,,,0.00,,2013-01-04 02:02:00,
2013-01-03 21:12:00,72.0,68.0,30.14,South,188,0.0,0.0,88,0.00,,,0.00,,2013-01-04 02:12:00,
2013-01-03 21:22:00,71.0,67.0,30.15,South,187,0.0,0.0,88,0.00,,,0.00,,2013-01-04 02:22:00,
2013-01-03 21:32:00,70.0,67.0,30.15,South,187,0.0,0.0,89,0.00,,,0.00,,2013-01-04 02:32:00,
2013-01-03 21:42:00,70.0,67.0,30.15,South,187,0.0,0.0,89,0.00,,,0.00,,2013-01-04 02:42:00,
2013-01-03 21:53:00,70.0,67.0,30.15,South,187,0.0,0.0,89,0.00,,,0.00,,2013-01-04 02:53:00,
2013-01-03 22:03:00,71.0,68.0,30.15,South,187,0.0,1.0,90,0.00,,,0.00,,2013-01-04 03:03:00,
2013-01-03 22:12:00,71.0,68.0,30.15,South,187,0.0,1.0,90,0.00,,,0.00,,2013-01-04 03:12:00,
2013-01-03 22:22:00,71.0,68.0,30.15,South,191,0.0,1.0,90,0.00,,,0.00,,2013-01-04 03:22:00,
2013-01-03 22:33:00,71.0,68.0,30.15,South,177,0.0,0.0,90,0.00,,,0.00,,2013-01-04 03:33:00,
2013-01-03 22:42:00,71.0,68.0,30.15,South,177,0.0,0.0,90,0.00,,,0.00,,2013-01-04 03:42:00,
2013-01-03 22:52:00,70.0,67.0,30.15,South,177,0.0,0.0,90,0.00,,,0.00,,2013-01-04 03:52:00,
2013-01-03 23:02:00,71.0,68.0,30.14,SSW,208,0.0,1.0,90,0.00,,,0.00,,2013-01-04 04:02:00,
2013-01-03 23:12:00,71.0,68.0,30.14,SSW,208,0.0,1.0,90,0.00,,,0.00,,2013-01-04 04:12:00,
2013-01-03 23:22:00,70.0,67.0,30.14,South,187,0.0,0.0,90,0.00,,,0.00,,2013-01-04 04:22:00,
2013-01-03 23:32:00,70.0,67.0,30.14,South,191,0.0,0.0,91,0.00,,,0.00,,2013-01-04 04:32:00,
2013-01-03 23:42:00,70.0,67.0,30.14,South,191,0.0,0.0,91,0.00,,,0.00,,2013-01-04 04:42:00,
2013-01-03 23:52:00,70.0,67.0,30.14,South,191,0.0,0.0,91,0.00,,,0.00,,2013-01-04 04:52:00,